Weather reports worldwide

Advertisment
Weybourne, United Kingdom (3488): temperature & dewpoint: 11.11.2018 03:00:00 - 17.11.2018 03:00:00 (GMT)Weybourne, United Kingdom (3488): wind speed & gusts: 11.11.2018 03:00:00 - 17.11.2018 03:00:00 (GMT)Weybourne, United Kingdom (3488): wind direction: 11.11.2018 03:00:00 - 17.11.2018 03:00:00 (GMT)Weybourne, United Kingdom (3488): reduced air pressure: 11.11.2018 03:00:00 - 17.11.2018 03:00:00 (GMT)Weybourne, United Kingdom (3488): visibility: 11.11.2018 03:00:00 - 17.11.2018 03:00:00 (GMT)Weybourne, United Kingdom (3488): sunshine duration: 11.11.2018 03:00:00 - 17.11.2018 03:00:00 (GMT)Weybourne, United Kingdom (3488): precipitation: 11.11.2018 03:00:00 - 17.11.2018 03:00:00 (GMT)
Date & Time tt [°C] td [°C] ff [km/h] ff [kn] fx [km/h] fx [kn] dd ppp [hPa] vv [km] sd [min] rr [mm]
17.11.2018 03:00:00 6,2 5,5 8 4 - - E 1028,9 2,7 0 0,0
17.11.2018 02:00:00 8,3 7,1 13 7 - - ESE 1028,8 5 0 0,0
17.11.2018 01:00:00 8,3 8,0 15 8 - - ESE 1028,7 2,1 0 0,0
17.11.2018 00:00:00 8,0 7,7 18 10 - - ESE 1028,5 4,6 - 0,0
16.11.2018 23:00:00 8,3 8,0 16 9 - - ESE 1028,2 2,3 0 0,0
16.11.2018 22:00:00 8,9 8,5 16 9 - - ESE 1028,2 4,0 0 0,0
16.11.2018 21:00:00 - - - - - - - - - - -
16.11.2018 20:00:00 - - - - - - - - - - -
16.11.2018 19:00:00 8,5 7,0 16 9 - - ESE 1028,0 9 0 0,0
16.11.2018 18:00:00 8,9 6,7 15 8 - - E 1027,5 14 0 0,0
16.11.2018 17:00:00 9,1 6,9 13 7 - - SE 1027,0 20 0 0,0
16.11.2018 16:00:00 9,6 7,8 11 6 - - ESE 1026,8 12 0 0,0
16.11.2018 15:00:00 - - - - - - - - - - -
16.11.2018 14:00:00 - - - - - - - - - - -
16.11.2018 13:00:00 9,5 8,0 15 8 - - SE 1026,8 12 0 0,0
16.11.2018 12:00:00 9,2 8,8 15 8 - - SE 1026,8 5 0 0,0
16.11.2018 11:00:00 9,4 9,3 13 7 - - ESE 1026,9 3,7 0 0,0
16.11.2018 10:00:00 9,4 9,3 11 6 - - SE 1027,0 2,8 0 0,0
16.11.2018 09:00:00 9,3 9,1 11 6 - - SSE 1026,7 2,5 0 0,0
16.11.2018 08:00:00 9,6 9,4 15 8 - - ESE 1025,8 2,5 0 0,0
16.11.2018 07:00:00 9,8 9,6 8 4 - - SE 1025,4 1,0 0 0,0
16.11.2018 06:00:00 9,8 9,6 11 6 - - ESE 1024,8 3,1 0 0,0
16.11.2018 05:00:00 9,7 9,5 11 6 - - ESE 1024,5 3,7 0 0,0
16.11.2018 04:00:00 9,6 9,5 8 4 - - S 1024,2 6 0 0,0
16.11.2018 03:00:00 9,9 9,8 5 3 - - SW 1024,1 2,7 0 0,0
16.11.2018 02:00:00 9,9 9,8 8 4 - - SSW 1024,0 1,8 0 0,0
16.11.2018 01:00:00 9,9 9,9 15 8 - - SW 1023,7 1,8 0 0,0
16.11.2018 00:00:00 9,8 9,7 18 10 - - SSE 1022,7 1,6 - 0,0
15.11.2018 23:00:00 10,4 10,3 11 6 - - SSE 1022,4 0,9 0 0,0
15.11.2018 22:00:00 10,5 10,3 15 8 - - SSE 1022,0 1,4 0 0,0
15.11.2018 21:00:00 10,8 10,4 13 7 - - SSE 1021,8 2,0 0 0,0
15.11.2018 20:00:00 11,8 10,9 11 6 - - SSE 1021,9 5 0 0,0
15.11.2018 19:00:00 12,7 11,3 11 6 - - S 1021,6 9 0 0,0
15.11.2018 18:00:00 13,2 11,7 8 4 - - SSE 1021,2 10 0 0,0
15.11.2018 17:00:00 13,5 11,7 11 6 - - S 1021,0 13 0 0,0
15.11.2018 16:00:00 13,7 11,8 9 5 - - S 1020,7 14 0 0,0
15.11.2018 15:00:00 13,9 11,6 22 12 - - S 1020,5 13 36 0,0
15.11.2018 14:00:00 15,0 11,1 15 8 - - S 1020,5 29 60 0,0
15.11.2018 13:00:00 14,9 10,6 16 9 - - S 1020,6 25 60 0,0
15.11.2018 12:00:00 14,5 11,4 11 6 - - SSE 1021,0 21 30 0,0
15.11.2018 11:00:00 13,1 12,0 8 4 - - SSE 1021,5 11 6 0,0
15.11.2018 10:00:00 11,7 11,5 11 6 - - S 1021,8 5 0 0,0
15.11.2018 09:00:00 10,9 10,8 11 6 - - S 1021,7 3,2 0 0,0
15.11.2018 08:00:00 10,6 10,5 15 8 - - S 1021,4 2,7 0 0,0
15.11.2018 07:00:00 10,3 10,2 15 8 - - S 1021,0 2,6 0 0,0
15.11.2018 06:00:00 10,3 10,2 11 6 - - S 1021,0 2,6 0 0,0
15.11.2018 05:00:00 9,4 9,3 5 3 - - E 1021,0 0,4 0 0,0
15.11.2018 04:00:00 9,3 9,2 5 3 - - W 1020,9 1,5 0 0,0
15.11.2018 03:00:00 8,9 8,8 22 12 - - S 1020,3 1,2 0 0,0
15.11.2018 02:00:00 8,9 8,7 26 14 - - S 1020,7 1,0 0 0,0
15.11.2018 01:00:00 9,0 8,6 29 16 - - S 1020,7 3,0 0 0,0
15.11.2018 00:00:00 9,3 8,5 29 16 - - S 1020,8 10 - 0,0
14.11.2018 23:00:00 9,0 8,1 26 14 - - S 1020,9 16 0 0,0
14.11.2018 22:00:00 9,2 7,7 26 14 - - S 1021,2 35 0 0,0
14.11.2018 21:00:00 9,2 7,8 24 13 - - S 1021,2 27 0 0,0
14.11.2018 20:00:00 8,8 7,6 21 11 - - S 1021,4 28 0 0,0
14.11.2018 19:00:00 9,5 7,6 24 13 - - S 1021,1 30 0 0,0
14.11.2018 18:00:00 10,1 8,0 24 13 - - S 1020,8 45 0 0,0
14.11.2018 17:00:00 10,9 8,5 16 9 - - S 1020,7 50 0 0,0
14.11.2018 16:00:00 12,0 8,5 22 12 - - S 1020,4 50 48 0,0
14.11.2018 15:00:00 13,1 8,5 21 11 - - S 1020,4 50 60 0,0
14.11.2018 14:00:00 13,5 8,4 28 15 46 25 SSW 1020,2 45 60 0,0
14.11.2018 13:00:00 14,2 8,5 28 15 54 29 S 1020,8 50 60 0,0
14.11.2018 12:00:00 13,5 8,6 35 19 52 28 S 1020,7 40 60 0,0
14.11.2018 11:00:00 13,0 9,0 34 18 52 28 SSW 1021,2 50 36 0,0
14.11.2018 10:00:00 11,6 8,8 31 17 48 26 S 1021,4 40 0 0,0
14.11.2018 09:00:00 10,8 8,6 26 14 55 30 S 1021,4 30 0 0,0
14.11.2018 08:00:00 10,6 8,6 34 18 48 26 S 1021,0 45 0 0,0
14.11.2018 07:00:00 9,9 8,3 26 14 - - S 1021,1 40 0 0,0
14.11.2018 06:00:00 9,6 8,3 28 15 - - S 1021,1 35 0 0,0
14.11.2018 05:00:00 9,2 8,0 28 15 - - S 1021,5 30 0 0,0
14.11.2018 04:00:00 8,6 7,8 18 10 - - S 1021,7 27 0 0,0
14.11.2018 03:00:00 8,4 7,6 18 10 - - S 1022,5 20 0 0,0
14.11.2018 02:00:00 8,7 7,6 22 12 - - S 1023,0 20 0 0,0
14.11.2018 01:00:00 8,7 7,4 21 11 - - S 1023,5 24 0 0,0
14.11.2018 00:00:00 8,4 6,9 22 12 - - S 1023,7 30 - 0,0
13.11.2018 23:00:00 8,8 6,6 22 12 - - SSW 1023,7 30 0 0,0
13.11.2018 22:00:00 8,5 6,1 21 11 - - SSW 1023,7 45 0 0,0
13.11.2018 21:00:00 8,9 6,0 22 12 - - SSW 1023,7 45 0 0,0
13.11.2018 20:00:00 8,7 6,1 18 10 - - SSW 1023,7 22 0 0,0
13.11.2018 19:00:00 8,6 6,3 15 8 - - SSW 1023,4 50 0 0,0
13.11.2018 18:00:00 8,8 6,4 18 10 - - SSW 1023,0 45 0 0,0
13.11.2018 17:00:00 9,0 6,5 16 9 - - SSW 1022,5 40 0 0,0
13.11.2018 16:00:00 10,6 6,9 18 10 - - SW 1021,8 50 24 0,0
13.11.2018 15:00:00 11,7 6,0 21 11 - - SW 1021,0 45 54 0,0
13.11.2018 14:00:00 12,8 6,9 26 14 - - WSW 1020,1 50 60 0,0
13.11.2018 13:00:00 12,4 6,9 29 16 52 28 SW 1019,5 30 60 0,0
13.11.2018 12:00:00 12,0 7,1 37 20 52 28 WSW 1018,5 40 60 0,0
13.11.2018 11:00:00 11,3 6,9 34 18 54 29 SW 1017,9 35 60 0,0
13.11.2018 10:00:00 10,1 6,4 37 20 55 30 SW 1017,1 50 60 0,0
13.11.2018 09:00:00 9,2 6,1 34 18 48 26 SW 1016,0 50 60 0,0
13.11.2018 08:00:00 7,9 5,7 31 17 - - SW 1015,0 35 12 0,0
13.11.2018 07:00:00 8,0 5,6 31 17 - - SW 1013,7 50 0 0,0
13.11.2018 06:00:00 8,3 5,9 31 17 46 25 SW 1013,1 50 0 0,0
13.11.2018 05:00:00 8,5 6,0 29 16 - - SSW 1012,3 45 0 0,0
13.11.2018 04:00:00 8,6 6,1 26 14 - - SSW 1011,6 40 0 0,0
13.11.2018 03:00:00 8,9 6,8 26 14 - - SSW 1011,0 35 0 0,0
13.11.2018 02:00:00 9,1 7,2 22 12 - - S 1011,0 30 0 0,0
13.11.2018 01:00:00 9,2 7,3 22 12 - - S 1010,6 40 0 0,0
13.11.2018 00:00:00 9,1 7,0 18 10 - - S 1010,8 50 - 0,0
12.11.2018 23:00:00 9,2 7,3 24 13 - - S 1010,4 40 0 0,0
12.11.2018 22:00:00 9,3 7,6 21 11 - - S 1010,5 2,0 0 0,0
12.11.2018 21:00:00 9,4 7,6 24 13 - - S 1010,5 30 0 0,0
12.11.2018 20:00:00 9,5 7,3 21 11 - - S 1010,7 35 0 0,0
12.11.2018 19:00:00 9,9 7,2 24 13 - - S 1010,5 40 0 0,0
12.11.2018 18:00:00 10,5 6,9 21 11 - - S 1010,3 50 0 0,0
12.11.2018 17:00:00 10,9 8,3 16 9 - - S 1009,5 40 0 0,0
12.11.2018 16:00:00 11,9 7,6 18 10 - - S 1009,1 50 42 0,0
12.11.2018 15:00:00 13,7 7,9 18 10 - - S 1008,7 50 60 0,0
12.11.2018 14:00:00 14,3 8,4 24 13 - - S 1008,4 35 54 0,0
12.11.2018 13:00:00 13,8 9,3 21 11 - - SSW 1008,3 25 60 0,0
12.11.2018 12:00:00 13,8 9,1 26 14 - - SSW 1008,4 35 60 0,0
12.11.2018 11:00:00 13,0 9,2 26 14 - - SSW 1008,7 30 54 0,0
12.11.2018 10:00:00 11,8 9,7 22 12 - - SSW 1008,5 22 12 0,0
12.11.2018 09:00:00 10,6 9,5 21 11 - - S 1008,3 28 0 0,0
12.11.2018 08:00:00 10,0 8,9 22 12 - - S 1007,8 30 0 0,0
12.11.2018 07:00:00 10,0 8,8 21 11 - - S 1007,3 23 0 0,0
12.11.2018 06:00:00 9,9 8,4 22 12 - - S 1007,0 24 0 0,0
12.11.2018 05:00:00 9,7 7,9 21 11 - - S 1006,8 30 0 0,0
12.11.2018 04:00:00 9,6 7,8 21 11 - - S 1006,5 40 0 0,0
12.11.2018 03:00:00 9,3 7,6 22 12 - - S 1006,8 29 0 0,0
12.11.2018 02:00:00 8,9 7,2 22 12 - - S 1006,7 29 0 0,0
12.11.2018 01:00:00 8,7 6,9 24 13 - - S 1006,3 25 0 0,0
12.11.2018 00:00:00 8,4 6,6 26 14 - - S 1006,4 26 - 0,0
11.11.2018 23:00:00 8,9 6,8 26 14 - - SSW 1005,7 28 0 0,0
11.11.2018 22:00:00 8,1 6,3 22 12 - - S 1005,3 30 0 0,0
11.11.2018 21:00:00 8,2 6,0 22 12 - - SSW 1004,8 40 0 0,0
11.11.2018 20:00:00 8,4 5,8 22 12 - - SSW 1004,0 50 0 0,0
11.11.2018 19:00:00 8,6 5,8 18 10 - - SSW 1003,1 40 0 0,0
11.11.2018 18:00:00 8,9 5,9 18 10 - - S 1002,4 50 0 0,0
11.11.2018 17:00:00 9,1 5,8 16 9 - - SSW 1001,3 27 0 0,0
11.11.2018 16:00:00 10,8 6,0 22 12 48 26 SW 1000,3 50 54 0,0
11.11.2018 15:00:00 11,9 7,0 28 15 46 25 SW 999,3 50 36 0,0
11.11.2018 14:00:00 12,1 7,0 34 18 55 30 SW 998,2 50 48 0,0
11.11.2018 13:00:00 12,4 7,6 35 19 57 31 SSW 997,1 40 42 0,0
11.11.2018 12:00:00 12,2 8,6 34 18 55 30 SSW 996,6 30 6 0,0
11.11.2018 11:00:00 11,4 8,7 21 11 - - S 996,0 45 54 0,2
11.11.2018 10:00:00 10,0 8,4 22 12 - - S 995,4 50 0 0,2
11.11.2018 09:00:00 9,0 8,5 24 13 - - SSE 995,3 19 0 0,0
11.11.2018 08:00:00 7,7 7,3 22 12 - - SSE 995,3 50 6 0,2
11.11.2018 07:00:00 7,5 7,1 18 10 - - SSE 994,9 35 0 0,0
11.11.2018 06:00:00 7,8 7,3 21 11 - - SSE 994,6 35 0 0,0
11.11.2018 05:00:00 8,2 7,7 18 10 - - S 994,3 30 0 0,0
11.11.2018 04:00:00 8,7 8,2 18 10 - - S 994,4 19 0 0,0
11.11.2018 03:00:00 8,6 8,1 24 13 - - S 994,1 29 0 0,0

tt = temperature
td = dewpoint
ff = wind speed
fx = gusts
dd = wind direction
ppp = reduced air pressure
vv = visibility
sd = sunshine duration
rr = precipitation

Next stations